ZHONGXING-12

Last updated on Thu Aug 13 2026 00:02:59 GMT+0000 (Coordinated Universal Time)

1 39017U 12067A 26224.51810124 -.00000224 00000+0 00000+0 0 9991 2 39017 0.0293 105.9172 0002616 35.7027 93.3545 1.00272079 50079
UTC large
Height (km)
Speed (km/s)
/
Latitude / Longitude
Inclination (degrees)
Orbital Period (minutes)
Azimuth
Elevation
Range (km)
Doppler Factor

Next 0 passes for location: London (51.5072 / 0.1276)

No passes found over London.
ZHONGXING-12